Weather History for Artesia, NM

Change the Weather History Date:

Monday, January 28, 2013

  Actual Average Record
Temperature  
Mean Temperature 56 °F -  
Max Temperature 68 °F 60 °F 78 °F (1982)
Min Temperature 44 °F 24 °F -3 °F (1948)
Degree Days  
Heating Degree Days 9    
Growing Degree Days 6 (Base 50)    
Moisture  
Dew Point 32 °F    
Average Humidity 44    
Maximum Humidity 71    
Minimum Humidity 21    
Precipitation  
Precipitation 0.00 in - - ()
Sea Level Pressure  
Sea Level Pressure 29.86 in    
Wind  
Wind Speed 14 mph (SSW)    
Max Wind Speed 29 mph    
Max Gust Speed 36 mph    
Visibility 10 miles    
Events      
Averages and records for this station are not official NWS values.
T = Trace of Precipitation, MM = Missing Value Source: NWS Daily Summary

Daily Weather History Graph

Daily Weather History Graph

Search for Another Location

Airport:

Trip Planner

Search our weather history database for the weather conditions in past years. The results will help you decide how hot, cold, wet, or windy it might be!

Date:

Astronomy

Jan. 28, 2013 Rise Set
Actual Time 6:55 AM MST 5:26 PM MST
Civil Twilight 6:29 AM MST 5:53 PM MST
Nautical Twilight 5:59 AM MST 6:22 PM MST
Astronomical Twilight 5:30 AM MST 6:51 PM MST
Moon 7:14 PM MST (1/28) 7:29 AM MST (1/28)
Length of Visible Light 11h 23m
Length of Day
10h 31m
Full, 97% of the Moon is Illuminated
Jan 28
Full
Feb 3
Last Quarter
Feb 10
New
Feb 17
First Quarter
Feb 25
Full

Hourly Weather History & Observations

Time (MST) Temp. Windchill Dew Point Humidity Pressure Visibility Wind Dir Wind Speed Gust Speed Precip Events Conditions
12:15 AM 51.8 °F - 37.4 °F 58% 29.93 in 10.0 mi SW 16.1 mph - N/A   Clear
12:35 AM 51.8 °F - 35.6 °F 54% 29.94 in 10.0 mi SW 12.7 mph - N/A   Clear
12:55 AM 53.6 °F - 35.6 °F 51% 29.94 in 10.0 mi SW 13.8 mph - N/A   Clear
1:15 AM 50.0 °F - 35.6 °F 58% 29.94 in 10.0 mi SW 13.8 mph - N/A   Clear
1:35 AM 51.8 °F - 35.6 °F 54% 29.94 in 10.0 mi SW 12.7 mph - N/A   Clear
1:55 AM 48.2 °F - 35.6 °F 62% 29.93 in 10.0 mi South 10.4 mph - N/A   Clear
2:15 AM 50.0 °F - 35.6 °F 58% 29.93 in 10.0 mi South 10.4 mph - N/A   Clear
2:35 AM 50.0 °F - 35.6 °F 58% 29.94 in 10.0 mi SSE 9.2 mph - N/A   Clear
2:55 AM 48.2 °F - 35.6 °F 62% 29.93 in 10.0 mi South 10.4 mph - N/A   Clear
3:15 AM 46.4 °F 41.5 °F 35.6 °F 66% 29.93 in 10.0 mi South 10.4 mph - N/A   Clear
3:35 AM 46.4 °F 41.9 °F 35.6 °F 66% 29.93 in 10.0 mi SSE 9.2 mph - N/A   Clear
3:55 AM 48.2 °F - 35.6 °F 62% 29.92 in 10.0 mi SSE 9.2 mph - N/A   Clear
4:15 AM 46.4 °F 41.9 °F 35.6 °F 66% 29.92 in 10.0 mi SSE 9.2 mph - N/A   Clear
4:35 AM 46.4 °F 41.9 °F 35.6 °F 66% 29.92 in 10.0 mi SSE 9.2 mph - N/A   Clear
4:55 AM 46.4 °F 42.4 °F 35.6 °F 66% 29.91 in 10.0 mi South 8.1 mph - N/A   Clear
5:15 AM 44.6 °F 40.2 °F 35.6 °F 71% 29.91 in 10.0 mi South 8.1 mph - N/A   Clear
5:35 AM 44.6 °F 39.7 °F 35.6 °F 71% 29.90 in 10.0 mi South 9.2 mph - N/A   Clear
5:55 AM 44.6 °F 39.2 °F 35.6 °F 71% 29.90 in 10.0 mi South 10.4 mph - N/A   Clear
6:15 AM 46.4 °F 41.5 °F 35.6 °F 66% 29.91 in 10.0 mi South 10.4 mph - N/A   Clear
6:35 AM 46.4 °F 41.9 °F 35.6 °F 66% 29.91 in 10.0 mi SSE 9.2 mph - N/A   Clear
6:55 AM 44.6 °F 39.7 °F 35.6 °F 71% 29.92 in 10.0 mi SSE 9.2 mph - N/A   Clear
7:15 AM 44.6 °F 40.2 °F 35.6 °F 71% 29.91 in 10.0 mi South 8.1 mph - N/A   Clear
7:35 AM 46.4 °F 41.9 °F 35.6 °F 66% 29.92 in 10.0 mi South 9.2 mph - N/A   Clear
7:55 AM 46.4 °F 41.9 °F 37.4 °F 71% 29.92 in 10.0 mi South 9.2 mph - N/A   Clear
8:15 AM 46.4 °F 41.5 °F 37.4 °F 71% 29.92 in 10.0 mi SSE 10.4 mph - N/A   Clear
8:35 AM 48.2 °F - 37.4 °F 66% 29.92 in 10.0 mi SSE 8.1 mph - N/A   Clear
8:55 AM 48.2 °F - 37.4 °F 66% 29.92 in 10.0 mi SE 9.2 mph - N/A   Clear
9:15 AM 50.0 °F - 37.4 °F 62% 29.92 in 10.0 mi SE 6.9 mph - N/A   Clear
9:35 AM 59.0 °F - 39.2 °F 48% 29.92 in 10.0 mi South 16.1 mph - N/A   Clear
10:35 AM 62.6 °F - 39.2 °F 42% 29.91 in 10.0 mi SSE 19.6 mph 24.2 mph N/A   Clear
10:55 AM 64.4 °F - 37.4 °F 37% 29.90 in 10.0 mi SSW 17.3 mph 23.0 mph N/A   Clear
11:15 AM 64.4 °F - 35.6 °F 34% 29.89 in 10.0 mi SW 20.7 mph 26.5 mph N/A   Clear
11:35 AM 66.2 °F - 35.6 °F 32% 29.89 in 10.0 mi SSW 18.4 mph 26.5 mph N/A   Clear
11:55 AM 66.2 °F - 32.0 °F 28% 29.88 in 10.0 mi SW 18.4 mph 27.6 mph N/A   Clear
12:15 PM 66.2 °F - 32.0 °F 28% 29.87 in 10.0 mi SW 24.2 mph 35.7 mph N/A   Clear
12:35 PM 68.0 °F - 32.0 °F 26% 29.85 in 10.0 mi WSW 17.3 mph 33.4 mph N/A   Partly Cloudy
12:55 PM 68.0 °F - 32.0 °F 26% 29.84 in 10.0 mi SW 20.7 mph 29.9 mph N/A   Mostly Cloudy
1:15 PM 68.0 °F - 30.2 °F 24% 29.83 in 10.0 mi SW 20.7 mph 33.4 mph N/A   Partly Cloudy
1:35 PM 68.0 °F - 28.4 °F 23% 29.82 in 10.0 mi SW 27.6 mph 33.4 mph N/A   Clear
1:55 PM 68.0 °F - 28.4 °F 23% 29.82 in 10.0 mi SW 20.7 mph 35.7 mph N/A   Clear
2:15 PM 68.0 °F - 26.6 °F 21% 29.82 in 10.0 mi WSW 24.2 mph 31.1 mph N/A   Partly Cloudy
2:35 PM 68.0 °F - 26.6 °F 21% 29.81 in 10.0 mi WSW 26.5 mph 34.5 mph N/A   Clear
2:55 PM 68.0 °F - 26.6 °F 21% 29.82 in 10.0 mi SW 24.2 mph 31.1 mph N/A   Clear
3:15 PM 68.0 °F - 26.6 °F 21% 29.82 in 10.0 mi SW 28.8 mph 33.4 mph N/A   Partly Cloudy
3:35 PM 66.2 °F - 24.8 °F 21% 29.82 in 10.0 mi SW 21.9 mph 29.9 mph N/A   Partly Cloudy
3:55 PM 66.2 °F - 24.8 °F 21% 29.82 in 10.0 mi SW 24.2 mph 29.9 mph N/A   Clear
4:15 PM 66.2 °F - 26.6 °F 23% 29.82 in 10.0 mi WSW 28.8 mph 34.5 mph N/A   Clear
4:35 PM 66.2 °F - 26.6 °F 23% 29.82 in 10.0 mi SW 25.3 mph 34.5 mph N/A   Clear
4:55 PM 64.4 °F - 26.6 °F 24% 29.81 in 10.0 mi WSW 24.2 mph 27.6 mph N/A   Clear
5:15 PM 62.6 °F - 26.6 °F 26% 29.81 in 10.0 mi SW 11.5 mph - N/A   Clear
5:35 PM 62.6 °F - 26.6 °F 26% 29.81 in 10.0 mi SW 13.8 mph - N/A   Clear
5:55 PM 59.0 °F - 28.4 °F 31% 29.81 in 10.0 mi SSW 11.5 mph - N/A   Clear
6:15 PM 57.2 °F - 26.6 °F 31% 29.81 in 10.0 mi SSW 9.2 mph - N/A   Clear
6:35 PM 55.4 °F - 26.6 °F 33% 29.81 in 10.0 mi SSW 9.2 mph - N/A   Clear
6:55 PM 53.6 °F - 26.6 °F 35% 29.80 in 10.0 mi SSW 9.2 mph - N/A   Clear
7:15 PM 53.6 °F - 26.6 °F 35% 29.80 in 10.0 mi SSW 10.4 mph - N/A   Clear
7:35 PM 50.0 °F - 26.6 °F 40% 29.80 in 10.0 mi SW 9.2 mph - N/A   Clear
7:55 PM 51.8 °F - 26.6 °F 38% 29.80 in 10.0 mi WSW 10.4 mph - N/A   Clear
8:15 PM 53.6 °F - 28.4 °F 38% 29.80 in 10.0 mi WSW 12.7 mph - N/A   Clear
8:35 PM 55.4 °F - 30.2 °F 38% 29.79 in 10.0 mi WSW 12.7 mph - N/A   Clear
8:55 PM 55.4 °F - 30.2 °F 38% 29.79 in 10.0 mi WSW 13.8 mph - N/A   Clear
9:15 PM 55.4 °F - 28.4 °F 36% 29.79 in 10.0 mi WSW 17.3 mph - N/A   Clear
9:35 PM 55.4 °F - 26.6 °F 33% 29.78 in 10.0 mi WSW 15.0 mph - N/A   Clear
9:55 PM 55.4 °F - 26.6 °F 33% 29.78 in 10.0 mi WSW 15.0 mph - N/A   Clear
10:15 PM 53.6 °F - 26.6 °F 35% 29.78 in 10.0 mi WSW 13.8 mph - N/A   Clear
10:35 PM 53.6 °F - 26.6 °F 35% 29.78 in 10.0 mi WSW 13.8 mph 18.4 mph N/A   Clear
10:55 PM 53.6 °F - 26.6 °F 35% 29.78 in 10.0 mi WSW 13.8 mph - N/A   Clear
11:15 PM 53.6 °F - 28.4 °F 38% 29.78 in 10.0 mi WSW 18.4 mph - N/A   Clear
11:35 PM 53.6 °F - 28.4 °F 38% 29.77 in 10.0 mi WSW 17.3 mph 21.9 mph N/A   Clear
11:55 PM 53.6 °F - 28.4 °F 38% 29.78 in 10.0 mi SW 16.1 mph 25.3 mph N/A   Clear